RYR89TL EIKY-EGGW

Flight info

Callsign RYR89TL
Flight time 1h 12m
Altitude 33000
Route CRK3D CRK DCT ENJEX DCT AVZAC DCT ICOSA DCT RUHUN DCT YORQI DCT CAWZE P2 SIRIC
Aircraft B738/M-SDE2E3FGHIRWXY/LB1

Departure

Time 2026-04-28 19:26
Airport Kerry Airport (EIKY)

Arrival

Time 2026-04-28 20:39
Airport London Luton Airport (EGGW)
Time Latitude Longitude Altitude Speed Heading
2026-04-28 18:48 52.18095 -9.53648 96 ft 0 kts 83°
2026-04-28 18:50 52.18093 -9.53627 96 ft 11 kts 102°
2026-04-28 18:50 52.18095 -9.53648 95 ft 0 kts 83°
2026-04-28 18:57 52.18093 -9.53627 96 ft 0 kts 102°
2026-04-28 19:08 52.18095 -9.53648 96 ft 0 kts 83°
2026-04-28 19:22 52.18095 -9.53646 94 ft 1 kts 89°
2026-04-28 19:22 52.18090 -9.53636 98 ft 2 kts 131°
2026-04-28 19:22 52.18052 -9.53646 99 ft 6 kts 192°
2026-04-28 19:22 52.18017 -9.53647 97 ft 1 kts 177°
2026-04-28 19:23 52.18012 -9.53645 97 ft 1 kts 163°
2026-04-28 19:23 52.17989 -9.53620 99 ft 7 kts 149°
2026-04-28 19:23 52.17945 -9.53593 97 ft 7 kts 160°
2026-04-28 19:23 52.17934 -9.53587 97 ft 0 kts 161°
2026-04-28 19:24 52.17932 -9.53586 99 ft 1 kts 161°
2026-04-28 19:25 52.17893 -9.53564 99 ft 11 kts 162°
2026-04-28 19:25 52.17811 -9.53650 100 ft 15 kts 225°
2026-04-28 19:25 52.17812 -9.53748 101 ft 6 kts 34°
2026-04-28 19:25 52.17826 -9.53636 99 ft 14 kts 71°
2026-04-28 19:26 52.17876 -9.53406 99 ft 44 kts 71°
2026-04-28 19:26 52.18053 -9.52555 97 ft 113 kts 71°
2026-04-28 19:26 52.18366 -9.51075 214 ft 156 kts 71°
2026-04-28 19:26 52.18737 -9.49378 839 ft 164 kts 70°
2026-04-28 19:27 52.19136 -9.47541 1492 ft 173 kts 73°
2026-04-28 19:27 52.19506 -9.45645 2200 ft 187 kts 72°
2026-04-28 19:27 52.19940 -9.43488 2504 ft 210 kts 72°
2026-04-28 19:27 52.20412 -9.41183 3113 ft 216 kts 72°
2026-04-28 19:28 52.20895 -9.38852 3825 ft 220 kts 71°
2026-04-28 19:28 52.21242 -9.36420 4422 ft 222 kts 85°
2026-04-28 19:28 52.21064 -9.33971 4509 ft 228 kts 105°
2026-04-28 19:28 52.20414 -9.31586 4525 ft 234 kts 118°
2026-04-28 19:29 52.19431 -9.29329 4527 ft 254 kts 124°
2026-04-28 19:29 52.18710 -9.27810 4534 ft 258 kts 125°
2026-04-28 19:29 52.17234 -9.24720 4540 ft 257 kts 123°
2026-04-28 19:29 52.16191 -9.22363 4541 ft 256 kts 122°
2026-04-28 19:30 52.15165 -9.19995 4539 ft 255 kts 121°
2026-04-28 19:30 52.14158 -9.17664 4536 ft 255 kts 121°
2026-04-28 19:30 52.13132 -9.15291 4656 ft 260 kts 121°
2026-04-28 19:30 52.12078 -9.12861 5464 ft 261 kts 121°
2026-04-28 19:31 52.11037 -9.10467 6474 ft 260 kts 121°
2026-04-28 19:31 52.09990 -9.08061 7304 ft 262 kts 121°
2026-04-28 19:31 52.08927 -9.05621 8115 ft 266 kts 121°
2026-04-28 19:31 52.07853 -9.03160 8936 ft 268 kts 121°
2026-04-28 19:32 52.06765 -9.00671 9769 ft 271 kts 121°
2026-04-28 19:32 52.05664 -8.98156 10534 ft 275 kts 121°
2026-04-28 19:32 52.04517 -8.95531 10835 ft 297 kts 121°
2026-04-28 19:32 52.03273 -8.92680 11035 ft 321 kts 121°
2026-04-28 19:33 52.02005 -8.89598 11427 ft 332 kts 114°
2026-04-28 19:33 52.01330 -8.86041 12099 ft 330 kts 93°
2026-04-28 19:33 52.01325 -8.82334 12939 ft 328 kts 85°
2026-04-28 19:33 52.01436 -8.78615 13776 ft 331 kts 84°
2026-04-28 19:34 52.01555 -8.74865 14515 ft 335 kts 84°
2026-04-28 19:34 52.01674 -8.71059 15246 ft 339 kts 84°
2026-04-28 19:34 52.01787 -8.67228 15982 ft 342 kts 84°
2026-04-28 19:34 52.01895 -8.63357 16741 ft 344 kts 84°
2026-04-28 19:35 52.02000 -8.59454 17482 ft 348 kts 84°
2026-04-28 19:35 52.02101 -8.55518 18203 ft 351 kts 84°
2026-04-28 19:35 52.02201 -8.51538 18878 ft 355 kts 84°
2026-04-28 19:35 52.02299 -8.47515 19486 ft 358 kts 84°
2026-04-28 19:36 52.02396 -8.43447 20090 ft 362 kts 84°
2026-04-28 19:36 52.02493 -8.39335 20688 ft 366 kts 84°
2026-04-28 19:36 52.02588 -8.35186 21278 ft 370 kts 84°
2026-04-28 19:36 52.02682 -8.31019 21995 ft 370 kts 84°
2026-04-28 19:37 52.02744 -8.28249 22434 ft 371 kts 84°
2026-04-28 19:37 52.02806 -8.25411 22794 ft 374 kts 84°
2026-04-28 19:37 52.02930 -8.19766 23474 ft 380 kts 84°
2026-04-28 19:37 52.03022 -8.15462 24002 ft 384 kts 84°
2026-04-28 19:38 52.03113 -8.11114 24473 ft 386 kts 84°
2026-04-28 19:38 52.03203 -8.06744 24956 ft 388 kts 84°
2026-04-28 19:38 52.03291 -8.02347 25430 ft 391 kts 84°
2026-04-28 19:38 52.03379 -7.97922 25866 ft 394 kts 84°
2026-04-28 19:39 52.03466 -7.93463 26300 ft 396 kts 84°
2026-04-28 19:39 52.03552 -7.88977 26729 ft 399 kts 84°
2026-04-28 19:39 52.03636 -7.84471 27187 ft 400 kts 84°
2026-04-28 19:39 52.03718 -7.79957 27705 ft 400 kts 84°
2026-04-28 19:40 52.03799 -7.75428 28130 ft 402 kts 84°
2026-04-28 19:40 52.03879 -7.70869 28488 ft 406 kts 84°
2026-04-28 19:40 52.03959 -7.66277 28835 ft 408 kts 84°
2026-04-28 19:40 52.04037 -7.61652 29216 ft 411 kts 84°
2026-04-28 19:41 52.04113 -7.57003 29623 ft 413 kts 84°
2026-04-28 19:41 52.04187 -7.52345 30046 ft 414 kts 84°
2026-04-28 19:41 52.04260 -7.47660 30428 ft 415 kts 84°
2026-04-28 19:41 52.04331 -7.42977 30794 ft 415 kts 84°
2026-04-28 19:42 52.04399 -7.38306 31256 ft 412 kts 84°
2026-04-28 19:42 52.04464 -7.33683 31887 ft 405 kts 84°
2026-04-28 19:42 52.04524 -7.29157 32606 ft 397 kts 84°
2026-04-28 19:42 52.04584 -7.24686 33036 ft 396 kts 84°
2026-04-28 19:43 52.04646 -7.20198 33304 ft 398 kts 84°
2026-04-28 19:43 52.04707 -7.15677 33359 ft 404 kts 84°
2026-04-28 19:43 52.04821 -7.06558 33366 ft 402 kts 84°
2026-04-28 19:44 52.04922 -6.97577 33370 ft 395 kts 84°
2026-04-28 19:44 52.05018 -6.88661 33376 ft 395 kts 84°
2026-04-28 19:45 52.05109 -6.79752 33379 ft 394 kts 84°
2026-04-28 19:45 52.05191 -6.70866 33370 ft 392 kts 84°
2026-04-28 19:46 52.05266 -6.62080 33367 ft 391 kts 84°
2026-04-28 19:46 52.05335 -6.53213 33367 ft 389 kts 85°
2026-04-28 19:47 52.05398 -6.44424 33366 ft 389 kts 85°
2026-04-28 19:47 52.05453 -6.35644 33402 ft 388 kts 85°
2026-04-28 19:48 52.05502 -6.26930 33361 ft 388 kts 85°
2026-04-28 19:48 52.05546 -6.18121 33362 ft 387 kts 85°
2026-04-28 19:49 52.05563 -6.09449 33361 ft 387 kts 88°
2026-04-28 19:49 52.04569 -6.00764 33358 ft 397 kts 101°
2026-04-28 19:50 52.01195 -5.88306 33351 ft 403 kts 107°
2026-04-28 19:51 51.98831 -5.80047 33355 ft 404 kts 107°
2026-04-28 19:51 51.96478 -5.71784 33342 ft 403 kts 107°
2026-04-28 19:52 51.94130 -5.63530 33343 ft 403 kts 107°
2026-04-28 19:52 51.91785 -5.55305 33341 ft 402 kts 107°
2026-04-28 19:53 51.89429 -5.47075 33350 ft 402 kts 107°
2026-04-28 19:53 51.87080 -5.38895 33332 ft 401 kts 107°
2026-04-28 19:54 51.84728 -5.30734 33335 ft 399 kts 107°
2026-04-28 19:54 51.82378 -5.22603 33331 ft 399 kts 107°
2026-04-28 19:55 51.80026 -5.14492 33332 ft 398 kts 107°
2026-04-28 19:55 51.77797 -5.06354 33324 ft 392 kts 101°
2026-04-28 19:56 51.76663 -4.98084 33329 ft 386 kts 94°
2026-04-28 19:56 51.75680 -4.89558 33331 ft 386 kts 95°
2026-04-28 19:57 51.74673 -4.81032 33323 ft 388 kts 95°
2026-04-28 19:57 51.73649 -4.72496 33326 ft 387 kts 95°
2026-04-28 19:58 51.72618 -4.63974 33323 ft 387 kts 95°
2026-04-28 19:58 51.71582 -4.55467 33348 ft 387 kts 95°
2026-04-28 19:58 51.71066 -4.51255 33311 ft 376 kts 95°
2026-04-28 19:59 51.70562 -4.47204 33297 ft 360 kts 95°
2026-04-28 19:59 51.69603 -4.39442 33280 ft 349 kts 95°
2026-04-28 19:59 51.69138 -4.35683 33109 ft 339 kts 94°
2026-04-28 20:00 51.68681 -4.31995 32863 ft 332 kts 95°
2026-04-28 20:00 51.68233 -4.28378 32591 ft 326 kts 95°
2026-04-28 20:00 51.67790 -4.24826 32326 ft 320 kts 95°
2026-04-28 20:00 51.67355 -4.21337 32067 ft 315 kts 95°
2026-04-28 20:01 51.66925 -4.17908 31810 ft 310 kts 94°
2026-04-28 20:01 51.66502 -4.14534 31555 ft 305 kts 94°
2026-04-28 20:01 51.66085 -4.11214 31300 ft 300 kts 94°
2026-04-28 20:01 51.65674 -4.07955 31054 ft 296 kts 94°
2026-04-28 20:02 51.65266 -4.04723 30802 ft 292 kts 94°
2026-04-28 20:02 51.64864 -4.01548 30547 ft 288 kts 94°
2026-04-28 20:02 51.64467 -3.98414 30294 ft 283 kts 94°
2026-04-28 20:02 51.64075 -3.95328 30006 ft 279 kts 94°
2026-04-28 20:03 51.63687 -3.92294 29716 ft 275 kts 94°
2026-04-28 20:03 51.63303 -3.89299 29438 ft 271 kts 94°
2026-04-28 20:03 51.62924 -3.86344 29147 ft 267 kts 94°
2026-04-28 20:03 51.62545 -3.83432 28900 ft 265 kts 94°
2026-04-28 20:04 51.62168 -3.80551 28624 ft 262 kts 94°
2026-04-28 20:04 51.61794 -3.77697 28351 ft 259 kts 94°
2026-04-28 20:04 51.61424 -3.74875 28077 ft 257 kts 94°
2026-04-28 20:04 51.61059 -3.72086 27810 ft 254 kts 94°
2026-04-28 20:05 51.60693 -3.69290 27407 ft 257 kts 94°
2026-04-28 20:05 51.60321 -3.66460 27014 ft 260 kts 94°
2026-04-28 20:05 51.59944 -3.63607 26607 ft 262 kts 94°
2026-04-28 20:05 51.59569 -3.60774 26206 ft 263 kts 94°
2026-04-28 20:06 51.59265 -3.57850 25829 ft 260 kts 90°
2026-04-28 20:06 51.59084 -3.54956 25425 ft 260 kts 89°
2026-04-28 20:06 51.58927 -3.52052 25025 ft 261 kts 89°
2026-04-28 20:06 51.58771 -3.49144 24671 ft 261 kts 89°
2026-04-28 20:07 51.58615 -3.46261 24301 ft 263 kts 89°
2026-04-28 20:07 51.58507 -3.44291 24048 ft 263 kts 89°
2026-04-28 20:07 51.58289 -3.40391 23529 ft 264 kts 89°
2026-04-28 20:07 51.58121 -3.37472 23263 ft 262 kts 89°
2026-04-28 20:08 51.57954 -3.34548 23039 ft 275 kts 90°
2026-04-28 20:08 51.57774 -3.31352 22805 ft 295 kts 90°
2026-04-28 20:08 51.57582 -3.28045 22514 ft 299 kts 91°
2026-04-28 20:08 51.57383 -3.24717 22252 ft 298 kts 91°
2026-04-28 20:09 51.57183 -3.21410 21978 ft 297 kts 91°
2026-04-28 20:09 51.56983 -3.18116 21712 ft 295 kts 91°
2026-04-28 20:09 51.56784 -3.14835 21456 ft 294 kts 91°
2026-04-28 20:09 51.56585 -3.11562 21285 ft 294 kts 91°
2026-04-28 20:10 51.56387 -3.08302 21029 ft 293 kts 91°
2026-04-28 20:10 51.56187 -3.05041 20790 ft 293 kts 91°
2026-04-28 20:10 51.55987 -3.01791 20535 ft 292 kts 91°
2026-04-28 20:10 51.55786 -2.98539 20284 ft 292 kts 92°
2026-04-28 20:11 51.55586 -2.95300 20041 ft 292 kts 92°
2026-04-28 20:11 51.55383 -2.92053 19791 ft 291 kts 92°
2026-04-28 20:11 51.55181 -2.88817 19544 ft 291 kts 92°
2026-04-28 20:11 51.54979 -2.85585 19318 ft 291 kts 92°
2026-04-28 20:12 51.54775 -2.82358 19076 ft 290 kts 93°
2026-04-28 20:12 51.54570 -2.79136 18738 ft 290 kts 93°
2026-04-28 20:12 51.54366 -2.75924 18495 ft 289 kts 93°
2026-04-28 20:12 51.54230 -2.73799 18355 ft 287 kts 93°
2026-04-28 20:13 51.53956 -2.69533 18324 ft 287 kts 93°
2026-04-28 20:13 51.53751 -2.66348 18302 ft 286 kts 93°
2026-04-28 20:13 51.53545 -2.63176 18301 ft 286 kts 93°
2026-04-28 20:13 51.53339 -2.59997 18300 ft 286 kts 93°
2026-04-28 20:14 51.53132 -2.56814 18299 ft 286 kts 94°
2026-04-28 20:14 51.52924 -2.53638 18294 ft 286 kts 94°
2026-04-28 20:14 51.52715 -2.50465 18295 ft 286 kts 94°
2026-04-28 20:14 51.52505 -2.47292 18298 ft 286 kts 94°
2026-04-28 20:15 51.52212 -2.44134 18291 ft 287 kts 100°
2026-04-28 20:15 51.51617 -2.41107 18301 ft 290 kts 107°
2026-04-28 20:15 51.50736 -2.38177 18304 ft 293 kts 113°
2026-04-28 20:15 51.49769 -2.35301 18294 ft 294 kts 114°
2026-04-28 20:16 51.48785 -2.32426 18301 ft 294 kts 114°
2026-04-28 20:16 51.47799 -2.29544 18299 ft 295 kts 114°
2026-04-28 20:16 51.46814 -2.26649 18296 ft 296 kts 114°
2026-04-28 20:16 51.45830 -2.23752 18297 ft 296 kts 114°
2026-04-28 20:17 51.44846 -2.20848 18290 ft 296 kts 114°
2026-04-28 20:17 51.43863 -2.17944 18294 ft 296 kts 114°
2026-04-28 20:17 51.42881 -2.15046 18298 ft 296 kts 114°
2026-04-28 20:17 51.41900 -2.12147 18295 ft 296 kts 114°
2026-04-28 20:18 51.40919 -2.09251 18276 ft 296 kts 114°
2026-04-28 20:18 51.40255 -2.07298 18285 ft 295 kts 114°
2026-04-28 20:18 51.38957 -2.03481 18292 ft 295 kts 114°
2026-04-28 20:18 51.38017 -2.00578 18284 ft 292 kts 108°
2026-04-28 20:19 51.37373 -1.97515 18304 ft 289 kts 101°
2026-04-28 20:19 51.37033 -1.94356 18299 ft 288 kts 95°
2026-04-28 20:19 51.36806 -1.91178 18265 ft 288 kts 94°
2026-04-28 20:19 51.36587 -1.87983 18270 ft 289 kts 95°
2026-04-28 20:20 51.36365 -1.84778 18289 ft 290 kts 95°
2026-04-28 20:20 51.36138 -1.81560 18292 ft 292 kts 95°
2026-04-28 20:20 51.35906 -1.78331 18290 ft 293 kts 95°
2026-04-28 20:20 51.35671 -1.75090 18288 ft 294 kts 95°
2026-04-28 20:21 51.35434 -1.71841 18281 ft 294 kts 95°
2026-04-28 20:21 51.35195 -1.68595 18281 ft 294 kts 95°
2026-04-28 20:21 51.34953 -1.65338 18284 ft 294 kts 95°
2026-04-28 20:21 51.34711 -1.62093 18280 ft 294 kts 95°
2026-04-28 20:22 51.34613 -1.58840 18232 ft 293 kts 83°
2026-04-28 20:22 51.34889 -1.56725 17974 ft 295 kts 74°
2026-04-28 20:22 51.35716 -1.53747 17579 ft 292 kts 61°
2026-04-28 20:22 51.36895 -1.51134 17205 ft 286 kts 57°
2026-04-28 20:23 51.38094 -1.48714 16844 ft 281 kts 56°
2026-04-28 20:23 51.39316 -1.46286 16471 ft 277 kts 56°
2026-04-28 20:23 51.40521 -1.43888 16112 ft 277 kts 56°
2026-04-28 20:23 51.41734 -1.41454 15763 ft 283 kts 56°
2026-04-28 20:24 51.42966 -1.38971 15425 ft 286 kts 56°
2026-04-28 20:24 51.44199 -1.36478 15074 ft 284 kts 56°
2026-04-28 20:24 51.45422 -1.34002 14733 ft 282 kts 57°
2026-04-28 20:24 51.46634 -1.31539 14389 ft 281 kts 57°
2026-04-28 20:25 51.47843 -1.29075 14057 ft 281 kts 57°
2026-04-28 20:25 51.49049 -1.26615 13681 ft 279 kts 57°
2026-04-28 20:25 51.50237 -1.24188 13280 ft 274 kts 57°
2026-04-28 20:25 51.51420 -1.21767 12600 ft 276 kts 56°
2026-04-28 20:26 51.52606 -1.19334 11968 ft 277 kts 56°
2026-04-28 20:26 51.53799 -1.16887 11348 ft 278 kts 56°
2026-04-28 20:26 51.54993 -1.14433 10728 ft 279 kts 55°
2026-04-28 20:26 51.56187 -1.11979 10107 ft 279 kts 55°
2026-04-28 20:27 51.57421 -1.09576 9432 ft 281 kts 47°
2026-04-28 20:27 51.59051 -1.07816 8815 ft 282 kts 32°
2026-04-28 20:27 51.60773 -1.06407 8189 ft 273 kts 31°
2026-04-28 20:27 51.62448 -1.05103 7588 ft 262 kts 31°
2026-04-28 20:28 51.64058 -1.03877 6972 ft 251 kts 31°
2026-04-28 20:28 51.65619 -1.02711 6336 ft 243 kts 31°
2026-04-28 20:28 51.67135 -1.01587 5688 ft 237 kts 30°
2026-04-28 20:28 51.68597 -1.00506 5055 ft 232 kts 30°
2026-04-28 20:29 51.70048 -0.99440 4399 ft 226 kts 31°
2026-04-28 20:29 51.71212 -0.97992 3779 ft 213 kts 55°
2026-04-28 20:29 51.72014 -0.96096 3173 ft 207 kts 60°
2026-04-28 20:29 51.72775 -0.94150 2591 ft 201 kts 60°
2026-04-28 20:30 51.73468 -0.92316 2412 ft 181 kts 60°
2026-04-28 20:30 51.74072 -0.90684 2314 ft 158 kts 60°
2026-04-28 20:30 51.74609 -0.89217 2310 ft 151 kts 60°
2026-04-28 20:30 51.75144 -0.87750 2301 ft 151 kts 60°
2026-04-28 20:31 51.75648 -0.86381 2303 ft 147 kts 60°
2026-04-28 20:31 51.76176 -0.84952 2308 ft 150 kts 60°
2026-04-28 20:31 51.76714 -0.83493 2320 ft 152 kts 60°
2026-04-28 20:31 51.77160 -0.81943 2314 ft 153 kts 72°
2026-04-28 20:32 51.77494 -0.80310 2301 ft 153 kts 71°
2026-04-28 20:32 51.77837 -0.78689 2313 ft 152 kts 71°
2026-04-28 20:32 51.78181 -0.77070 2314 ft 152 kts 71°
2026-04-28 20:32 51.78524 -0.75452 2320 ft 153 kts 70°
2026-04-28 20:33 51.78858 -0.73831 2331 ft 156 kts 71°
2026-04-28 20:33 51.79185 -0.72240 2316 ft 151 kts 71°
2026-04-28 20:33 51.79512 -0.70660 2318 ft 146 kts 71°
2026-04-28 20:33 51.79834 -0.69102 2311 ft 146 kts 71°
2026-04-28 20:34 51.80217 -0.67579 2318 ft 149 kts 65°
2026-04-28 20:34 51.80722 -0.65953 2318 ft 167 kts 64°
2026-04-28 20:34 51.81246 -0.64253 2321 ft 171 kts 64°
2026-04-28 20:34 51.81777 -0.62515 2309 ft 172 kts 63°
2026-04-28 20:35 51.82301 -0.60784 2305 ft 173 kts 64°
2026-04-28 20:35 51.82822 -0.59037 2326 ft 173 kts 64°
2026-04-28 20:35 51.83344 -0.57277 2323 ft 174 kts 65°
2026-04-28 20:35 51.83866 -0.55514 2304 ft 172 kts 65°
2026-04-28 20:36 51.84373 -0.53800 2309 ft 164 kts 64°
2026-04-28 20:36 51.84817 -0.52193 2312 ft 150 kts 70°
2026-04-28 20:36 51.85103 -0.50624 2305 ft 143 kts 73°
2026-04-28 20:36 51.85360 -0.49091 2311 ft 140 kts 73°
2026-04-28 20:37 51.85625 -0.47484 1790 ft 157 kts 72°
2026-04-28 20:37 51.85880 -0.45848 1596 ft 145 kts 73°
2026-04-28 20:37 51.86122 -0.44344 1395 ft 132 kts 70°
2026-04-28 20:37 51.86387 -0.42934 1172 ft 130 kts 70°
2026-04-28 20:38 51.86646 -0.41503 967 ft 139 kts 70°
2026-04-28 20:38 51.86900 -0.39997 790 ft 140 kts 69°
2026-04-28 20:38 51.87176 -0.38500 574 ft 135 kts 72°
2026-04-28 20:38 51.87414 -0.37131 521 ft 112 kts 74°
2026-04-28 20:39 51.87580 -0.36163 516 ft 50 kts 75°
2026-04-28 20:39 51.87652 -0.35917 515 ft 18 kts 15°
2026-04-28 20:39 51.87730 -0.35947 515 ft 0 kts 342°
2026-04-28 20:40 51.87739 -0.35952 515 ft 3 kts 340°
2026-04-28 20:40 51.87765 -0.35984 515 ft 6 kts 312°
2026-04-28 20:40 51.87784 -0.36055 517 ft 8 kts 272°
2026-04-28 20:40 51.87774 -0.36131 517 ft 4 kts 255°
2026-04-28 20:41 51.87765 -0.36184 517 ft 5 kts 254°
2026-04-28 20:41 51.87755 -0.36243 517 ft 6 kts 254°
2026-04-28 20:41 51.87742 -0.36317 517 ft 7 kts 254°
2026-04-28 20:41 51.87728 -0.36398 518 ft 8 kts 255°
2026-04-28 20:42 51.87713 -0.36486 519 ft 9 kts 254°
2026-04-28 20:42 51.87695 -0.36588 520 ft 10 kts 253°
2026-04-28 20:42 51.87675 -0.36705 521 ft 11 kts 254°
2026-04-28 20:42 51.87654 -0.36823 524 ft 11 kts 254°
2026-04-28 20:43 51.87664 -0.36939 523 ft 13 kts 321°
2026-04-28 20:43 51.87769 -0.37001 516 ft 20 kts 341°
2026-04-28 20:43 51.87876 -0.37057 509 ft 12 kts 342°
2026-04-28 20:43 51.87963 -0.37103 508 ft 14 kts 341°
2026-04-28 20:44 51.88059 -0.37155 507 ft 15 kts 341°
2026-04-28 20:44 51.88147 -0.37201 512 ft 11 kts 342°
2026-04-28 20:44 51.88208 -0.37232 516 ft 0 kts 340°
2026-04-28 20:47 51.88211 -0.37235 516 ft 1 kts 335°
2026-04-28 20:47 51.88226 -0.37264 516 ft 6 kts 302°
2026-04-28 20:47 51.88227 -0.37346 515 ft 9 kts 253°
2026-04-28 20:48 51.88204 -0.37483 515 ft 16 kts 269°
2026-04-28 20:48 51.88179 -0.37667 521 ft 16 kts 240°
2026-04-28 20:48 51.88131 -0.37708 522 ft 10 kts 179°
2026-04-28 20:48 51.88108 -0.37703 522 ft 0 kts 172°